Location: Newark
(45.8667°N, 9.7333°E)
Time: 08:08:44
(UTC+00:00)

A-11 Canister half - Pass Details

Date: 20 January 2020
Orbit: 1517 x 1683 km, 47.2° (Epoch: 17 February)

Event Time Altitude Azimuth Distance (km) Brightness Sun altitude
Rises 04:45:39 0° 285° (WNW) 4,666 - -22.3°
Reaches altitude 10° 04:48:41 10° 285° (WNW) 3,681 - -21.8°
Exits shadow 04:52:50 31° 284° (WNW) 2,409 9.4 -21.0°
Maximum altitude 04:57:57 84° 198° (SSW) 1,536 8.9 -20.2°
Drops below altitude 10° 05:07:22 10° 112° (ESE) 3,732 12.2 -18.5°
Sets 05:10:27 0° 112° (ESE) 4,734 13.1 -18.0°
